Location: Sungai Jaoh
(2.9167°N, 113.9167°E)
Time: 05:08:04
(UTC+00:00)

Meteor 2-3 Rocket - Pass Details

Date: 30 November 2020
Orbit: 842 x 885 km, 81.2° (Epoch: 25 January)

Event Time Altitude Azimuth Distance (km) Brightness Sun altitude
Rises 20:05:36 0° 176° (S) 3,416 7.2 -30.6°
Reaches altitude 10° 20:08:03 10° 171° (S) 2,485 6.5 -30.1°
Maximum altitude 20:13:33 55° 94° (E) 1,029 4.3 -28.8°
Drops below altitude 10° 20:19:06 10° 18° (NNE) 2,506 6.1 -27.5°
Sets 20:21:35 0° 14° (NNE) 3,448 6.8 -26.9°
